Volver al catálogo

ONEWEB-0162

ActivoComunicacionesPO
NORAD 48056·PAYLOAD·🇬🇧 United Kingdom

Lanzado Mar 25, 2021 desde Vostochny Cosmodrome

Loading…

Próximos Pases (próximas 24 horas)

TLE

ActualizadoSource: CelesTrak SupGP

Época: Sep 14, 2026, 15:50 UTC

1 48056C 21025Q   26257.66025880 -.00000495  00000+0 -13584-2 0  2579
2 48056  87.8928 302.4240 0001939 101.1138   1.6157 13.13474678    14

Sigue ONEWEB-0162 en tiempo real con AllMySat

Download on the App Store